FW8967 Weather Reports


Display with metric or nautical units.
time (UTC)temp
F
wind
direction
speed
MPH
gust
MPH
rain 1hr
in
rain 24hr
in
rain mn
in
humidity
%
barometer
mb
20260508053102 42 0 0.0 0.0 0.00 0.04 0.00 85 1014.3
20260508051548 43 0 0.0 0.0 0.00 0.04 0.00 85 1014.1
20260508050059 43 0 0.0 0.0 0.00 0.04 0.00 84 1014.0
20260508044547 43 0 0.0 0.0 0.00 0.04 0.00 84 1013.9
20260508043059 44 0 0.0 2.0 0.00 0.04 0.00 84 1013.6
20260508041551 44 0 0.0 0.0 0.00 0.04 0.00 83 1013.4
20260508040053 44 0 0.0 0.0 0.00 0.04 0.00 84 1013.3
20260508034548 45 0 0.0 0.0 0.00 0.05 0.04 83 1013.0
20260508033053 45 0 0.0 0.0 0.00 0.05 0.04 82 1013.0
20260508031555 46 0 0.0 0.0 0.00 0.05 0.04 81 1012.9
20260508030058 46 0 0.0 0.0 0.00 0.05 0.04 80 1012.8
20260508024557 47 0 0.0 1.0 0.00 0.10 0.04 79 1012.6
20260508023048 48 0 0.0 0.0 0.00 0.10 0.04 79 1012.6
20260508021553 48 0 0.0 0.0 0.00 0.10 0.04 76 1012.3
20260508020048 49 0 0.0 0.0 0.00 0.10 0.04 75 1012.1
20260508014550 50 295 0.0 2.0 0.00 0.10 0.04 74 1011.9
20260508013046 50 0 0.0 0.0 0.00 0.10 0.04 73 1011.5
20260508011547 52 0 0.0 0.0 0.00 0.10 0.04 69 1011.4
20260508010047 53 0 0.0 1.0 0.00 0.10 0.04 67 1011.2
20260508004553 55 0 0.0 2.0 0.00 0.10 0.04 62 1011.1
20260508003049 56 0 0.0 2.0 0.00 0.10 0.04 57 1011.1
20260508001551 57 0 0.0 2.0 0.00 0.10 0.04 57 1010.9
20260508000053 58 0 0.0 8.0 0.00 0.10 0.04 54 1010.9
20260507234552 59 338 1.0 9.0 0.00 0.10 0.04 52 1010.8
20260507233052 59 0 0.0 7.0 0.00 0.10 0.04 60 1010.5
20260507231550 61 0 0.0 3.0 0.00 0.10 0.04 54 1010.2
20260507230100 63 269 1.0 3.0 0.00 0.10 0.04 50 1010.0
20260507224557 64 130 1.0 5.0 0.00 0.10 0.04 51 1009.8
20260507223053 65 0 0.0 6.0 0.00 0.10 0.04 50 1009.7
20260507221549 65 266 1.0 7.0 0.00 0.10 0.04 52 1009.6
20260507220052 64 0 0.0 6.0 0.00 0.10 0.04 59 1009.3
20260507214550 63 257 1.0 4.0 0.00 0.10 0.04 64 1009.2
20260507213059 61 0 0.0 2.0 0.00 0.10 0.04 73 1009.3
20260507211554 60 0 0.0 0.0 0.00 0.10 0.04 72 1009.3
20260507210050 60 0 0.0 3.0 0.00 0.10 0.04 70 1009.2
20260507204555 60 0 0.0 2.0 0.00 0.10 0.04 69 1009.1
20260507203050 60 0 0.0 3.0 0.00 0.10 0.04 68 1009.0
20260507201601 60 0 0.0 3.0 0.00 0.10 0.04 67 1009.1
20260507200055 59 0 0.0 0.0 0.00 0.10 0.04 75 1009.3
20260507194553 58 0 0.0 2.0 0.00 0.10 0.04 71 1009.7
20260507193051 58 0 0.0 0.0 0.00 0.10 0.04 73 1010.1
20260507191610 57 0 0.0 2.0 0.00 0.10 0.04 71 1010.2
20260507190047 57 0 0.0 0.0 0.00 0.10 0.04 82 1010.2
20260507184557 57 0 0.0 0.0 0.00 0.10 0.04 79 1010.4
20260507183049 57 0 0.0 0.0 0.00 0.10 0.04 82 1010.6
20260507181552 56 0 0.0 0.0 0.00 0.10 0.04 85 1010.6
20260507180046 55 0 0.0 0.0 0.03 0.10 0.04 85 1010.6
20260507174547 55 0 0.0 0.0 0.03 0.10 0.04 87 1010.6
20260507173051 55 0 0.0 0.0 0.03 0.10 0.04 85 1010.6
20260507171552 56 0 0.0 1.0 0.03 0.10 0.04 81 1010.6
20260507170050 56 0 0.0 3.0 0.00 0.07 0.01 74 1010.8
20260507164604 57 0 0.0 1.0 0.00 0.09 0.01 76 1010.7
20260507163047 57 0 0.0 0.0 0.00 0.09 0.01 76 1010.6
20260507161554 57 0 0.0 0.0 0.00 0.09 0.01 76 1010.5
20260507160052 57 0 0.0 3.0 0.00 0.09 0.01 75 1010.7
20260507154551 58 0 0.0 2.0 0.00 0.09 0.01 78 1010.9
20260507153050 58 280 0.0 1.0 0.00 0.09 0.01 77 1011.1
20260507151552 58 0 0.0 2.0 0.00 0.09 0.01 76 1011.0
20260507150051 58 268 0.0 1.0 0.00 0.09 0.01 76 1010.9
20260507144600 59 0 0.0 1.0 0.00 0.09 0.01 78 1010.7
20260507143104 59 0 0.0 0.0 0.00 0.09 0.01 77 1010.6
20260507141607 59 0 0.0 4.0 0.00 0.09 0.01 78 1010.6
20260507140053 59 0 0.0 2.0 0.00 0.09 0.01 80 1010.5
20260507134551 59 0 0.0 3.0 0.00 0.11 0.01 79 1010.8
20260507133049 59 0 0.0 0.0 0.00 0.11 0.01 80 1010.9
20260507131559 58 0 0.0 2.0 0.00 0.11 0.01 80 1010.9
20260507130058 59 0 0.0 2.0 0.00 0.11 0.01 81 1011.1
20260507124547 58 0 0.0 3.0 0.00 0.11 0.01 81 1010.9
20260507123108 58 0 0.0 2.0 0.00 0.11 0.01 82 1011.0
20260507121549 57 0 0.0 0.0 0.00 0.11 0.01 85 1011.0
20260507120048 57 0 0.0 4.0 0.00 0.11 0.01 85 1010.9
20260507114552 57 0 0.0 1.0 0.00 0.11 0.01 86 1010.8
20260507113047 57 0 0.0 1.0 0.00 0.11 0.01 88 1010.7
20260507111549 57 0 0.0 1.0 0.00 0.11 0.01 88 1010.6
20260507110052 57 0 0.0 0.0 0.00 0.11 0.01 89 1010.1
20260507104551 58 0 0.0 0.0 0.00 0.11 0.01 89 1010.2
20260507103050 58 0 0.0 0.0 0.00 0.11 0.01 88 1009.9
20260507101551 58 0 0.0 1.0 0.00 0.11 0.01 87 1010.1
20260507100057 58 0 0.0 0.0 0.00 0.11 0.01 88 1010.1
20260507094550 58 284 0.0 5.0 0.00 0.11 0.01 89 1010.1
20260507093048 58 0 0.0 0.0 0.00 0.11 0.01 91 1009.8
20260507091551 59 0 0.0 0.0 0.00 0.11 0.01 91 1010.2
20260507090058 59 0 0.0 0.0 0.00 0.11 0.01 92 1009.4
20260507084554 59 0 0.0 0.0 0.00 0.11 0.01 92 1009.7
20260507083050 60 0 0.0 0.0 0.00 0.11 0.01 92 1010.1
20260507081554 60 0 0.0 1.0 0.00 0.11 0.01 92 1009.9
20260507080112 60 0 0.0 0.0 0.00 0.11 0.01 91 1010.1
20260507074547 60 0 0.0 0.0 0.00 0.11 0.01 91 1010.1
20260507073050 60 0 0.0 0.0 0.01 0.11 0.01 91 1010.1
20260507071549 61 0 0.0 0.0 0.01 0.11 0.01 90 1009.9
20260507070054 61 0 0.0 2.0 0.01 0.11 0.01 90 1009.8
20260507064619 61 0 0.0 0.0 0.01 0.11 0.01 92 1009.7
20260507063052 61 0 0.0 0.0 0.00 0.10 0.00 92 1010.2
20260507061549 61 0 0.0 0.0 0.00 0.10 0.00 93 1009.8
20260507060110 61 0 0.0 0.0 0.00 0.10 0.00 92 1009.6
20260507054552 61 0 0.0 0.0 0.00 0.10 0.00 92 1010.2